Date String (YYYY-MM-DD hh:mm:ss) UTC,Instrument flags,Ambient pressure (hPa),Sample flow (lpm),Bypass flow (lpm),Sample temperature (°C),Ambient temperature (°C),ASC tube jacket temperature (°C),LED temperature (°C),Box temperature (°C),Sample RH (%),Span deviation,Mass concentration (μg/m³),Mass concentration (μg/m³),Mass concentration (μg/m³)
DateTimeUTC,F1_M11,P_M11,Q1_M11,Q2_M11,T1_M11,T2_M11,T3_M11,T4_M11,T5_M11,U1_M11,ZSPAN_M11,X0_M11,X2_M11,X1_M11
2021-10-03 02:00:00,,0831.7,5.00,0.00,29.7,28.3,00.0,38.8,31.5,15.9,0000.0,0011.18,0004.36,0003.76
2021-10-03 02:01:00,,0831.7,5.00,0.00,29.7,28.5,00.0,38.8,31.5,16.0,0000.0,0011.01,0004.34,0003.77
2021-10-03 02:02:00,,0831.7,4.99,0.00,29.8,28.6,00.0,38.8,31.5,15.8,0000.0,0010.97,0004.36,0003.78
2021-10-03 02:03:00,,0831.7,5.00,0.00,29.8,28.7,00.0,38.8,31.6,15.6,0000.0,0011.12,0004.35,0003.78
2021-10-03 02:04:00,,0831.7,5.00,0.00,29.8,28.8,00.0,38.8,31.6,15.5,0000.0,0011.37,0004.36,0003.78
2021-10-03 02:05:00,,0831.8,5.00,0.00,29.8,28.8,00.0,38.9,31.6,15.4,0000.0,0011.10,0004.35,0003.79
2021-10-03 02:06:00,,0831.7,5.00,0.00,29.9,28.9,00.0,38.9,31.7,15.5,0000.0,0011.39,0004.35,0003.80
2021-10-03 02:07:00,,0831.7,5.01,0.00,29.9,28.9,00.0,38.9,31.7,15.5,0000.0,0011.43,0004.32,0003.80
2021-10-03 02:08:00,,0831.7,5.01,0.00,29.9,29.0,00.0,38.9,31.8,15.5,0000.0,0011.17,0004.30,0003.81
2021-10-03 02:09:00,,0831.7,4.99,0.00,29.9,29.0,00.0,38.9,31.7,15.5,0000.0,0011.05,0004.30,0003.83
2021-10-03 02:10:00,,0831.7,4.99,0.00,30.0,29.1,00.0,38.9,31.8,15.5,0000.0,0011.02,0004.31,0003.85
2021-10-03 02:11:00,,0831.7,5.00,0.00,30.0,29.1,00.0,39.0,31.8,15.6,0000.0,0011.60,0004.36,0003.88
2021-10-03 02:12:00,,0831.7,5.00,0.00,30.0,29.1,00.0,39.0,31.9,15.6,0000.0,0012.16,0004.42,0003.90
2021-10-03 02:13:00,,0831.7,5.01,0.00,30.0,29.2,00.0,39.0,31.9,15.6,0001.7,0012.42,0004.45,0003.93
2021-10-03 02:14:00,,0831.7,5.00,0.00,30.1,29.2,00.0,39.0,31.9,15.6,0002.7,0012.41,0004.51,0003.96
2021-10-03 02:15:00,,0831.8,5.00,0.00,30.1,29.2,00.0,39.0,31.9,15.7,0002.0,0012.93,0004.59,0004.00
2021-10-03 02:16:00,,0831.7,5.01,0.00,30.1,29.2,00.0,39.1,31.9,15.8,0001.1,0013.05,0004.62,0004.04
2021-10-03 02:17:00,,0831.7,5.00,0.00,30.1,29.3,00.0,39.1,32.0,15.7,0000.2,0011.81,0004.65,0004.07
2021-10-03 02:18:00,,0831.7,5.01,0.00,30.1,28.3,00.0,39.1,31.7,15.8,0002.5,0012.55,0004.72,0004.11
2021-10-03 02:19:00,,0831.8,4.99,0.00,30.0,26.5,00.0,39.1,31.2,16.1,0000.9,0013.07,0004.74,0004.13
2021-10-03 02:20:00,,0831.7,5.00,0.00,29.9,26.4,00.0,39.0,31.2,16.2,0002.0,0012.57,0004.73,0004.14
2021-10-03 02:21:00,,0831.7,4.99,0.00,29.8,26.7,00.0,39.0,31.3,16.4,0002.3,0012.16,0004.75,0004.15
2021-10-03 02:22:00,,0831.7,5.00,0.00,29.7,27.1,00.0,38.9,31.3,16.4,0001.7,0011.87,0004.76,0004.15
2021-10-03 02:23:00,,0831.7,5.00,0.00,29.7,27.5,00.0,38.9,31.3,16.5,0000.0,0011.99,0004.77,0004.14
2021-10-03 02:24:00,,0831.7,5.00,0.00,29.7,27.8,00.0,38.9,31.4,16.5,0000.0,0012.07,0004.74,0004.13
2021-10-03 02:25:00,,0831.7,4.99,0.00,29.7,28.0,00.0,38.9,31.4,16.5,0000.0,0012.08,0004.73,0004.14
2021-10-03 02:26:00,,0831.7,5.01,0.00,29.7,28.2,00.0,38.9,31.5,16.5,0000.0,0011.74,0004.71,0004.13
2021-10-03 02:27:00,,0831.7,5.00,0.00,29.7,28.4,00.0,38.8,31.5,16.5,0000.0,0010.93,0004.69,0004.11
2021-10-03 02:28:00,,0831.7,5.00,0.00,29.8,28.5,00.0,38.9,31.5,16.5,0000.0,0010.80,0004.67,0004.10
2021-10-03 02:29:00,,0831.7,5.00,0.00,29.8,28.6,00.0,38.8,31.6,16.5,0000.0,0009.98,0004.63,0004.09
2021-10-03 02:30:00,,0831.7,5.00,0.00,29.8,28.7,00.0,38.9,31.6,16.5,0000.0,0009.58,0004.66,0004.09
2021-10-03 02:31:00,,0831.7,4.98,0.00,29.8,28.8,00.0,38.9,31.6,16.5,0000.0,0009.63,0004.67,0004.10
2021-10-03 02:32:00,,0831.7,5.01,0.00,29.9,28.8,00.0,38.9,31.6,16.5,0000.0,0010.20,0004.72,0004.10
2021-10-03 02:33:00,,0831.7,4.99,0.00,29.9,28.9,00.0,38.9,31.7,16.5,0000.2,0010.37,0004.72,0004.13
2021-10-03 02:34:00,,0831.7,5.00,0.00,29.9,28.9,00.0,38.9,31.7,16.5,0000.9,0010.26,0004.72,0004.15
2021-10-03 02:35:00,,0831.7,5.01,0.00,29.9,29.0,00.0,38.9,31.7,16.5,0001.0,0010.05,0004.75,0004.17
2021-10-03 02:36:00,,0831.7,5.01,0.00,29.9,29.0,00.0,38.9,31.7,16.5,0001.1,0010.29,0004.76,0004.16
2021-10-03 02:37:00,,0831.7,5.01,0.00,30.0,29.0,00.0,39.0,31.7,16.5,0001.2,0010.21,0004.77,0004.18
2021-10-03 02:38:00,,0831.7,4.99,0.00,30.0,29.1,00.0,39.0,31.7,16.5,0001.3,0010.94,0004.76,0004.19
2021-10-03 02:39:00,,0831.7,5.01,0.00,30.0,29.1,00.0,39.0,31.8,16.5,0001.5,0010.91,0004.75,0004.19
2021-10-03 02:40:00,,0831.8,4.99,0.00,30.0,29.1,00.0,39.0,31.8,16.6,0001.5,0010.93,0004.77,0004.19
2021-10-03 02:41:00,,0831.8,5.01,0.00,30.1,29.1,00.0,39.0,31.9,16.6,0001.1,0011.32,0004.73,0004.18
2021-10-03 02:42:00,,0831.8,5.00,0.00,30.1,29.1,00.0,39.0,31.9,16.5,0001.2,0011.88,0004.75,0004.17
2021-10-03 02:43:00,,0831.8,4.98,0.00,30.1,29.2,00.0,39.1,31.9,16.5,0001.4,0011.58,0004.76,0004.17
2021-10-03 02:44:00,,0831.9,5.00,0.00,30.1,29.2,00.0,39.1,31.9,16.5,0001.3,0011.74,0004.78,0004.15
2021-10-03 02:45:00,,0831.9,5.00,0.00,30.1,29.2,00.0,39.1,31.9,16.4,0002.1,0011.28,0004.75,0004.14
2021-10-03 02:46:00,,0831.9,5.00,0.00,30.2,29.2,00.0,39.1,32.0,16.4,0002.2,0011.18,0004.74,0004.14
2021-10-03 02:47:00,,0832.0,5.01,0.00,30.2,29.3,00.0,39.1,32.0,16.4,0002.4,0010.87,0004.74,0004.15
2021-10-03 02:48:00,,0832.0,5.00,0.00,30.2,29.3,00.0,39.2,32.0,16.3,0002.1,0010.69,0004.70,0004.13
2021-10-03 02:49:00,,0832.0,5.00,0.00,30.2,28.0,00.0,39.2,31.7,16.3,0000.3,0010.67,0004.68,0004.12
2021-10-03 02:50:00,,0831.9,4.99,0.00,30.0,26.3,00.0,39.1,31.2,16.4,0000.0,0010.75,0004.69,0004.12
2021-10-03 02:51:00,,0832.0,5.01,0.00,29.9,26.2,00.0,39.1,31.2,16.5,0000.7,0010.77,0004.69,0004.12
2021-10-03 02:52:00,,0832.0,5.00,0.00,29.8,26.7,00.0,39.0,31.2,16.6,0000.2,0010.37,0004.73,0004.12
2021-10-03 02:53:00,,0832.0,5.01,0.00,29.7,27.1,00.0,39.0,31.3,16.5,0000.0,0009.84,0004.72,0004.11
2021-10-03 02:54:00,,0832.0,4.99,0.00,29.7,27.5,00.0,38.9,31.3,16.6,0000.0,0009.56,0004.69,0004.11
2021-10-03 02:55:00,,0832.0,5.01,0.00,29.7,27.8,00.0,38.9,31.4,16.6,0000.0,0009.14,0004.67,0004.10
2021-10-03 02:56:00,,0832.0,5.00,0.00,29.7,28.0,00.0,38.9,31.4,16.6,0000.0,0009.56,0004.66,0004.08
2021-10-03 02:57:00,,0832.0,4.99,0.00,29.7,28.2,00.0,38.9,31.4,16.6,0000.0,0009.52,0004.68,0004.07
2021-10-03 02:58:00,,0832.0,5.00,0.00,29.7,28.3,00.0,38.9,31.5,16.6,0000.0,0009.57,0004.69,0004.06
2021-10-03 02:59:00,,0832.0,5.01,0.00,29.8,28.5,00.0,38.9,31.5,16.5,0000.0,0009.60,0004.71,0004.05
